Погода в Фоминском

Россия / Алтайский край     52°27′15″N   84°54′35″E
темп.,
°C
ветер,
м/с
пор.,
м/с
влажн.,
%
обл.,
%
осадки,
мм/ч
давл.,
гПа
погр.,
м
8 марта, пн
пн801:00−5ююв129399 0.1 102221
04:00−6вюв339293 0.0 102033
07:00−7вюв338993 0.0 102030
10:00−4вюв348888 0.0 1016131
13:00−1юв239193 0.0 1013153
16:000ююз1110097 0.0 101242
19:00+1юз4158399 0.0 1013574
22:00+2зюз81879100 0.0 1014798
9 марта, вт
вт901:00+1зюз71790100 0.1 1016964
04:000з71294100 1.1 1021807
07:00−8з489397 1.1 1026235
10:00−9зюз479239 0.0 1029333
13:00−6зюз358425 0.0 1028473
16:00−4юз24810 0.0 1027530
19:00−8ю23905 0.0 102625
22:00−9юв238882 0.0 102623
10 марта, ср
ср1001:00−10вюв238571 0.0 102422
04:00−8вюв229190 0.0 102233
07:00−5вюв229194 0.1 102246
10:00−4юв238789 0.0 1020112
13:00−1вюв239557 0.0 1017187
16:000в359990 0.0 1015210
19:00−2в349079 0.0 101269
22:00−2вюв4587100 0.0 101079
11 марта, чт
чт1101:00−2ююв3480100 0.0 100733
04:00−1з3674100 0.0 1007127
07:00+2зюз61895100 0.4 1009769
10:00+1з61398100 0.1 1012725
13:00−2з588399 0.2 1014722
16:00−3зюз5894100 0.3 1016649
19:00−4зюз51293100 1.2 1019807
22:00−5зюз41389100 0.1 1023762
12 марта, пт
пт1201:00−8юз358367 0.1 102482
04:00−8юв499361 0.0 1021141
07:00−5ююз3178181 0.1 1018790
10:00−3з91494100 1.1 10201053
13:00−6з71393100 2.3 1020836
16:00−7з61093100 1.5 1021894
19:00−8зюз4891100 2.8 1022776
22:00−14з348869 0.0 102543